Location: Unspecified
(40.7945°N, 111.1337°W)
Time: 13:28:46
(UTC-06:00)

Vanguard 1 - Pass Details

Date: 16 June 2019
Orbit: 653 x 3830 km, 34.3° (Epoch: 20 July)

Event Time Altitude Azimuth Distance (km) Brightness Sun altitude
Exits shadow 04:23:01 14° 208° (SSW) 5,315 13.2 -13.7°
Maximum altitude 04:34:11 33° 158° (SSE) 3,096 12.4 -12.3°
Drops below altitude 10° 04:42:27 10° 99° (E) 3,581 13.5 -11.2°
Sets 04:45:11 0° 89° (E) 4,226 14.1 -10.8°
